| time (UTC) | temp F | wind direction | speed MPH | gust MPH | rain 1hr in | rain 24hr in | rain mn in | humidity % | barometer mb |
| 20260903230908 | 94 | 184 | 3.0 | 9.0 | 0.00 | 0.00 | 0.00 | 47 | 1010.2 |
| 20260903230032 | 95 | 136 | 3.0 | 10.0 | 0.00 | 0.00 | 0.00 | 45 | 1011.0 |
| 20260903225853 | 95 | 129 | 2.0 | 8.0 | 0.00 | 0.00 | 0.00 | 46 | 1010.1 |
| 20260903224900 | 96 | 153 | 2.0 | 8.0 | 0.00 | 0.00 | 0.00 | 46 | 1010.0 |
| 20260903224513 | 96 | 144 | 3.0 | 11.0 | 0.00 | 0.00 | 0.00 | 45 | 1010.7 |
| 20260903223901 | 97 | 322 | 1.0 | 8.0 | 0.00 | 0.00 | 0.00 | 44 | 1009.9 |
| 20260903223032 | 97 | 78 | 1.0 | 9.0 | 0.00 | 0.00 | 0.00 | 41 | 1010.7 |
| 20260903222901 | 97 | 153 | 2.0 | 8.0 | 0.00 | 0.00 | 0.00 | 41 | 1009.9 |
| 20260903221534 | 96 | 144 | 1.0 | 8.0 | 0.00 | 0.00 | 0.00 | 42 | 1010.7 |
| 20260903220724 | 96 | 102 | 1.0 | 6.0 | 0.00 | 0.00 | 0.00 | 43 | 1009.9 |
| 20260903220034 | 98 | 119 | 2.0 | 8.0 | 0.00 | 0.00 | 0.00 | 43 | 1010.8 |
| 20260903215711 | 98 | 144 | 1.0 | 6.0 | 0.00 | 0.00 | 0.00 | 43 | 1009.9 |
| 20260903214641 | 97 | 137 | 0.0 | 5.0 | 0.00 | 0.00 | 0.00 | 44 | 1010.0 |
| 20260903214539 | 97 | 155 | 1.0 | 7.0 | 0.00 | 0.00 | 0.00 | 43 | 1011.0 |
| 20260903213635 | 96 | 134 | 1.0 | 5.0 | 0.00 | 0.00 | 0.00 | 43 | 1010.1 |
| 20260903213028 | 96 | 88 | 1.0 | 6.0 | 0.00 | 0.00 | 0.00 | 43 | 1011.1 |
| 20260903212628 | 96 | 136 | 0.0 | 2.0 | 0.00 | 0.00 | 0.00 | 45 | 1010.3 |
| 20260903211614 | 96 | 170 | 0.0 | 2.0 | 0.00 | 0.00 | 0.00 | 45 | 1010.4 |
| 20260903211524 | 95 | 171 | 1.0 | 3.0 | 0.00 | 0.00 | 0.00 | 44 | 1011.3 |
| 20260903210614 | 96 | 152 | 0.0 | 6.0 | 0.00 | 0.00 | 0.00 | 43 | 1010.5 |
| 20260903210035 | 96 | 136 | 1.0 | 8.0 | 0.00 | 0.00 | 0.00 | 45 | 1011.5 |
| 20260903205625 | 97 | 134 | 0.0 | 6.0 | 0.00 | 0.00 | 0.00 | 43 | 1010.6 |
| 20260903204524 | 97 | 140 | 1.0 | 5.0 | 0.00 | 0.00 | 0.00 | 40 | 1011.8 |
| 20260903203434 | 97 | 349 | 0.0 | 5.0 | 0.00 | 0.00 | 0.00 | 43 | 1011.0 |
| 20260903203012 | 97 | 129 | 1.0 | 7.0 | 0.00 | 0.00 | 0.00 | 43 | 1011.9 |
| 20260903202455 | 97 | 357 | 1.0 | 5.0 | 0.00 | 0.00 | 0.00 | 45 | 1011.2 |
| 20260903201536 | 96 | 183 | 3.0 | 6.0 | 0.00 | 0.00 | 0.00 | 45 | 1012.1 |
| 20260903201519 | 97 | 209 | 0.0 | 4.0 | 0.00 | 0.00 | 0.00 | 45 | 1011.3 |
| 20260903200458 | 96 | 175 | 1.0 | 6.0 | 0.00 | 0.00 | 0.00 | 45 | 1011.4 |
| 20260903200030 | 96 | 153 | 1.0 | 4.0 | 0.00 | 0.00 | 0.00 | 45 | 1012.2 |
| 20260903194533 | 97 | 67 | 1.0 | 3.0 | 0.00 | 0.00 | 0.00 | 46 | 1012.4 |
| 20260903194316 | 97 | 77 | 0.0 | 5.0 | 0.00 | 0.00 | 0.00 | 47 | 1011.5 |
| 20260903193029 | 96 | 171 | 1.0 | 7.0 | 0.00 | 0.00 | 0.00 | 47 | 1012.7 |
| 20260903192200 | 97 | 184 | 0.0 | 4.0 | 0.00 | 0.00 | 0.00 | 50 | 1011.9 |
| 20260903191503 | 97 | 333 | 1.0 | 4.0 | 0.00 | 0.00 | 0.00 | 50 | 1012.9 |
| 20260903191157 | 98 | 307 | 0.0 | 3.0 | 0.00 | 0.00 | 0.00 | 50 | 1012.1 |
| 20260903190148 | 97 | 94 | 0.0 | 5.0 | 0.00 | 0.00 | 0.00 | 50 | 1012.2 |
| 20260903190004 | 95 | 319 | 1.0 | 7.0 | 0.00 | 0.00 | 0.00 | 49 | 1013.1 |
| 20260903185128 | 95 | 106 | 1.0 | 5.0 | 0.00 | 0.00 | 0.00 | 49 | 1012.5 |
| 20260903184518 | 95 | 127 | 3.0 | 6.0 | 0.00 | 0.00 | 0.00 | 47 | 1013.5 |
| 20260903184110 | 96 | 39 | 0.0 | 4.0 | 0.00 | 0.00 | 0.00 | 47 | 1012.7 |
| 20260903183019 | 95 | 286 | 1.0 | 9.0 | 0.00 | 0.00 | 0.00 | 48 | 1013.7 |
| 20260903181940 | 95 | 293 | 0.0 | 7.0 | 0.00 | 0.00 | 0.00 | 49 | 1013.0 |
| 20260903181517 | 94 | 105 | 1.0 | 9.0 | 0.00 | 0.00 | 0.00 | 51 | 1014.0 |
| 20260903180918 | 95 | 147 | 0.0 | 7.0 | 0.00 | 0.00 | 0.00 | 50 | 1013.2 |
| 20260903180034 | 93 | 313 | 0.0 | 4.0 | 0.00 | 0.00 | 0.00 | 53 | 1014.1 |
| 20260903175908 | 94 | 99 | 0.0 | 2.0 | 0.00 | 0.00 | 0.00 | 54 | 1013.3 |
| 20260903174843 | 92 | 217 | 0.0 | 7.0 | 0.00 | 0.00 | 0.00 | 59 | 1013.4 |
| 20260903174509 | 90 | 191 | 2.0 | 9.0 | 0.00 | 0.00 | 0.00 | 57 | 1014.3 |
| 20260903173003 | 89 | 115 | 0.0 | 5.0 | 0.00 | 0.00 | 0.00 | 60 | 1014.6 |
| 20260903172635 | 90 | 195 | 0.0 | 5.0 | 0.00 | 0.00 | 0.00 | 59 | 1013.7 |
| 20260903171509 | 91 | 129 | 1.0 | 7.0 | 0.00 | 0.00 | 0.00 | 57 | 1014.9 |
| 20260903170447 | 89 | 122 | 0.0 | 5.0 | 0.00 | 0.00 | 0.00 | 62 | 1014.0 |
| 20260903170005 | 89 | 168 | 1.0 | 7.0 | 0.00 | 0.00 | 0.00 | 61 | 1015.0 |
| 20260903165509 | 88 | 323 | 1.0 | 5.0 | 0.00 | 0.00 | 0.00 | 66 | 1014.1 |
| 20260903164532 | 89 | 194 | 1.0 | 6.0 | 0.00 | 0.00 | 0.00 | 62 | 1015.0 |
| 20260903163308 | 88 | 114 | 0.0 | 4.0 | 0.00 | 0.00 | 0.00 | 64 | 1014.3 |
| 20260903163018 | 89 | 77 | 1.0 | 6.0 | 0.00 | 0.00 | 0.00 | 63 | 1015.1 |
| 20260903162330 | 89 | 117 | 0.0 | 4.0 | 0.00 | 0.00 | 0.00 | 64 | 1014.3 |
| 20260903161525 | 90 | 335 | 1.0 | 4.0 | 0.00 | 0.00 | 0.00 | 63 | 1015.1 |
| 20260903161331 | 90 | 0 | 0.0 | 6.0 | 0.00 | 0.00 | 0.00 | 63 | 1014.2 |
| 20260903160349 | 90 | 99 | 0.0 | 6.0 | 0.00 | 0.00 | 0.00 | 66 | 1014.2 |
| 20260903160014 | 88 | 337 | 2.0 | 8.0 | 0.00 | 0.00 | 0.00 | 66 | 1015.1 |
| 20260903155403 | 89 | 146 | 0.0 | 0.0 | 0.00 | 0.00 | 0.00 | 68 | 1014.2 |
| 20260903154513 | 88 | 159 | 1.0 | 8.0 | 0.00 | 0.00 | 0.00 | 66 | 1015.0 |
| 20260903154400 | 89 | 175 | 0.0 | 6.0 | 0.00 | 0.00 | 0.00 | 67 | 1014.2 |
| 20260903153008 | 87 | 165 | 1.0 | 4.0 | 0.00 | 0.00 | 0.00 | 68 | 1015.0 |
| 20260903152211 | 87 | 308 | 0.0 | 4.0 | 0.00 | 0.00 | 0.00 | 72 | 1014.2 |
| 20260903151507 | 86 | 75 | 0.0 | 3.0 | 0.00 | 0.00 | 0.00 | 74 | 1015.0 |
| 20260903151216 | 85 | 354 | 0.0 | 4.0 | 0.00 | 0.00 | 0.00 | 75 | 1014.2 |
| 20260903150144 | 83 | 192 | 0.0 | 4.0 | 0.00 | 0.00 | 0.00 | 75 | 1014.2 |
| 20260903150038 | 83 | 207 | 1.0 | 4.0 | 0.00 | 0.00 | 0.00 | 75 | 1015.0 |
| 20260903145206 | 84 | 132 | 0.0 | 2.0 | 0.00 | 0.00 | 0.00 | 74 | 1014.2 |
| 20260903144527 | 85 | 173 | 0.0 | 3.0 | 0.00 | 0.00 | 0.00 | 74 | 1015.0 |
| 20260903144219 | 86 | 95 | 0.0 | 2.0 | 0.00 | 0.00 | 0.00 | 74 | 1014.2 |
| 20260903143144 | 84 | 321 | 0.0 | 1.0 | 0.00 | 0.00 | 0.00 | 77 | 1014.3 |
| 20260903143036 | 83 | 186 | 0.0 | 2.0 | 0.00 | 0.00 | 0.00 | 76 | 1015.2 |
| 20260903142148 | 84 | 1 | 0.0 | 1.0 | 0.00 | 0.00 | 0.00 | 77 | 1014.4 |
| 20260903141525 | 84 | 99 | 2.0 | 6.0 | 0.00 | 0.00 | 0.00 | 77 | 1015.2 |
| 20260903141144 | 83 | 224 | 0.0 | 4.0 | 0.00 | 0.00 | 0.00 | 79 | 1014.4 |
| 20260903140208 | 83 | 207 | 0.0 | 2.0 | 0.00 | 0.00 | 0.00 | 81 | 1014.4 |
| 20260903140022 | 82 | 121 | 1.0 | 3.0 | 0.00 | 0.00 | 0.00 | 81 | 1015.2 |
| 20260903135215 | 80 | 135 | 0.0 | 4.0 | 0.00 | 0.00 | 0.00 | 83 | 1014.4 |
| 20260903134539 | 80 | 123 | 0.0 | 2.0 | 0.00 | 0.00 | 0.00 | 83 | 1015.2 |
| 20260903133114 | 80 | 109 | 0.0 | 0.0 | 0.00 | 0.00 | 0.00 | 84 | 1014.5 |
| 20260903133014 | 79 | 22 | 0.0 | 4.0 | 0.00 | 0.00 | 0.00 | 84 | 1015.2 |
| 20260903132050 | 79 | 1 | 0.0 | 6.0 | 0.00 | 0.00 | 0.00 | 84 | 1014.5 |
| 20260903131509 | 79 | 87 | 1.0 | 8.0 | 0.00 | 0.00 | 0.00 | 83 | 1015.2 |
| 20260903131058 | 79 | 359 | 0.0 | 2.0 | 0.00 | 0.00 | 0.00 | 84 | 1014.5 |
| 20260903130117 | 79 | 187 | 0.0 | 2.0 | 0.00 | 0.00 | 0.00 | 85 | 1014.4 |
| 20260903130006 | 79 | 298 | 1.0 | 3.0 | 0.00 | 0.00 | 0.00 | 84 | 1015.2 |
| 20260903125100 | 79 | 181 | 0.0 | 2.0 | 0.00 | 0.00 | 0.00 | 85 | 1014.3 |
| 20260903124527 | 78 | 69 | 0.0 | 2.0 | 0.00 | 0.00 | 0.00 | 84 | 1014.9 |
| 20260903123035 | 78 | 56 | 0.0 | 2.0 | 0.00 | 0.00 | 0.00 | 84 | 1014.9 |
| 20260903122958 | 79 | 51 | 0.0 | 0.0 | 0.00 | 0.00 | 0.00 | 85 | 1014.1 |
| 20260903121924 | 79 | 117 | 0.0 | 0.0 | 0.00 | 0.00 | 0.00 | 85 | 1014.0 |
| 20260903121529 | 79 | 136 | 0.0 | 4.0 | 0.00 | 0.00 | 0.00 | 84 | 1014.8 |
| 20260903120024 | 79 | 118 | 0.0 | 2.0 | 0.00 | 0.00 | 0.00 | 84 | 1014.7 |
| 20260903115746 | 79 | 92 | 0.0 | 1.0 | 0.00 | 0.00 | 0.00 | 85 | 1013.9 |
| 20260903114739 | 79 | 81 | 0.0 | 0.0 | 0.00 | 0.00 | 0.00 | 85 | 1013.9 |
| 20260903114519 | 78 | 32 | 0.0 | 2.0 | 0.00 | 0.00 | 0.00 | 85 | 1014.5 |
| 20260903113751 | 79 | 138 | 0.0 | 0.0 | 0.00 | 0.00 | 0.00 | 85 | 1013.7 |
| 20260903113021 | 78 | 173 | 0.0 | 3.0 | 0.00 | 0.00 | 0.00 | 85 | 1014.4 |
| 20260903112756 | 79 | 160 | 0.0 | 2.0 | 0.00 | 0.00 | 0.00 | 85 | 1013.7 |
| 20260903111756 | 79 | 188 | 0.0 | 0.0 | 0.00 | 0.00 | 0.00 | 85 | 1013.7 |
| 20260903111517 | 78 | 140 | 1.0 | 3.0 | 0.00 | 0.00 | 0.00 | 84 | 1014.2 |
| 20260903110820 | 79 | 115 | 0.0 | 0.0 | 0.00 | 0.00 | 0.00 | 85 | 1013.6 |
| 20260903110010 | 79 | 132 | 0.0 | 3.0 | 0.00 | 0.00 | 0.00 | 84 | 1014.3 |
| 20260903105817 | 79 | 139 | 0.0 | 2.0 | 0.00 | 0.00 | 0.00 | 85 | 1013.6 |
| 20260903104530 | 79 | 249 | 0.0 | 3.0 | 0.00 | 0.00 | 0.00 | 85 | 1014.3 |
| 20260903103028 | 79 | 140 | 1.0 | 3.0 | 0.00 | 0.00 | 0.00 | 84 | 1014.4 |
| 20260903102637 | 79 | 128 | 0.0 | 5.0 | 0.00 | 0.00 | 0.00 | 85 | 1013.6 |
| 20260903101626 | 80 | 172 | 0.0 | 0.0 | 0.00 | 0.00 | 0.00 | 84 | 1013.6 |
| 20260903101530 | 79 | 136 | 1.0 | 8.0 | 0.00 | 0.00 | 0.00 | 84 | 1014.3 |
| 20260903100559 | 80 | 79 | 0.0 | 8.0 | 0.00 | 0.00 | 0.00 | 85 | 1013.6 |
| 20260903100032 | 79 | 133 | 1.0 | 10.0 | 0.00 | 0.00 | 0.00 | 85 | 1014.3 |
| 20260903094533 | 79 | 113 | 1.0 | 4.0 | 0.00 | 0.00 | 0.00 | 85 | 1014.4 |
| 20260903093336 | 80 | 133 | 0.0 | 3.0 | 0.00 | 0.00 | 0.00 | 86 | 1013.6 |
| 20260903093040 | 79 | 182 | 1.0 | 4.0 | 0.00 | 0.00 | 0.00 | 85 | 1014.2 |
| 20260903092357 | 80 | 180 | 0.0 | 4.0 | 0.00 | 0.00 | 0.00 | 86 | 1013.6 |
| 20260903091519 | 79 | 103 | 1.0 | 6.0 | 0.00 | 0.00 | 0.00 | 85 | 1014.3 |
| 20260903091354 | 80 | 216 | 0.0 | 5.0 | 0.00 | 0.00 | 0.00 | 86 | 1013.6 |
| 20260903090410 | 79 | 121 | 0.0 | 5.0 | 0.00 | 0.00 | 0.00 | 86 | 1013.6 |
| 20260903090026 | 79 | 118 | 1.0 | 8.0 | 0.00 | 0.00 | 0.00 | 85 | 1014.3 |
| 20260903085430 | 79 | 169 | 0.0 | 4.0 | 0.00 | 0.00 | 0.00 | 85 | 1013.7 |
| 20260903084535 | 79 | 138 | 1.0 | 4.0 | 0.00 | 0.00 | 0.00 | 84 | 1014.4 |
| 20260903084427 | 79 | 117 | 0.0 | 2.0 | 0.00 | 0.00 | 0.00 | 85 | 1013.8 |
| 20260903083032 | 79 | 142 | 1.0 | 8.0 | 0.00 | 0.00 | 0.00 | 84 | 1014.5 |
| 20260903082243 | 80 | 172 | 0.0 | 2.0 | 0.00 | 0.00 | 0.00 | 84 | 1013.6 |
| 20260903081539 | 79 | 101 | 1.0 | 4.0 | 0.00 | 0.00 | 0.00 | 83 | 1014.4 |
| 20260903081217 | 80 | 141 | 0.0 | 0.0 | 0.00 | 0.00 | 0.00 | 83 | 1013.8 |
| 20260903080210 | 80 | 165 | 0.0 | 3.0 | 0.00 | 0.00 | 0.00 | 83 | 1013.9 |
| 20260903080031 | 79 | 161 | 1.0 | 3.0 | 0.00 | 0.00 | 0.00 | 82 | 1014.6 |
| 20260903075152 | 80 | 132 | 0.0 | 0.0 | 0.00 | 0.00 | 0.00 | 82 | 1013.9 |
| 20260903074526 | 80 | 159 | 0.0 | 4.0 | 0.00 | 0.00 | 0.00 | 81 | 1014.5 |
| 20260903073026 | 80 | 159 | 0.0 | 5.0 | 0.00 | 0.00 | 0.00 | 80 | 1014.6 |
| 20260903073016 | 80 | 157 | 0.0 | 1.0 | 0.00 | 0.00 | 0.00 | 81 | 1013.9 |
| 20260903071951 | 80 | 104 | 0.0 | 5.0 | 0.00 | 0.00 | 0.00 | 80 | 1013.8 |
| 20260903071523 | 80 | 138 | 1.0 | 4.0 | 0.00 | 0.00 | 0.00 | 80 | 1014.4 |
| 20260903070938 | 81 | 113 | 0.0 | 0.0 | 0.00 | 0.00 | 0.00 | 80 | 1013.8 |
| 20260903070021 | 80 | 149 | 0.0 | 7.0 | 0.00 | 0.00 | 0.00 | 79 | 1014.3 |
| 20260903065926 | 81 | 148 | 0.0 | 6.0 | 0.00 | 0.00 | 0.00 | 79 | 1013.7 |
| 20260903064922 | 81 | 122 | 0.0 | 6.0 | 0.00 | 0.00 | 0.00 | 79 | 1013.9 |
| 20260903064530 | 81 | 109 | 2.0 | 8.0 | 0.00 | 0.00 | 0.00 | 78 | 1014.7 |
| 20260903063852 | 81 | 111 | 0.0 | 4.0 | 0.00 | 0.00 | 0.00 | 78 | 1013.9 |
| 20260903063031 | 81 | 178 | 1.0 | 5.0 | 0.00 | 0.00 | 0.00 | 77 | 1014.5 |
| 20260903062913 | 81 | 79 | 0.0 | 4.0 | 0.00 | 0.00 | 0.00 | 78 | 1013.9 |
| 20260903061927 | 82 | 128 | 0.0 | 4.0 | 0.00 | 0.00 | 0.00 | 77 | 1013.9 |
| 20260903061512 | 81 | 118 | 2.0 | 7.0 | 0.00 | 0.00 | 0.00 | 76 | 1014.7 |
| 20260903060924 | 82 | 134 | 0.0 | 6.0 | 0.00 | 0.00 | 0.00 | 76 | 1014.0 |
| 20260903060017 | 82 | 118 | 2.0 | 8.0 | 0.00 | 0.00 | 0.00 | 74 | 1014.7 |
| 20260903054758 | 83 | 118 | 1.0 | 7.0 | 0.00 | 0.00 | 0.00 | 71 | 1014.0 |
| 20260903054509 | 83 | 96 | 1.0 | 10.0 | 0.00 | 0.00 | 0.00 | 70 | 1014.9 |
| 20260903053809 | 84 | 80 | 1.0 | 7.0 | 0.00 | 0.00 | 0.00 | 69 | 1014.0 |
| 20260903053004 | 84 | 194 | 2.0 | 7.0 | 0.00 | 0.00 | 0.00 | 67 | 1014.7 |
| 20260903052826 | 84 | 128 | 1.0 | 5.0 | 0.00 | 0.00 | 0.00 | 68 | 1014.1 |
| 20260903051831 | 84 | 143 | 0.0 | 5.0 | 0.00 | 0.00 | 0.00 | 67 | 1013.8 |
| 20260903051520 | 84 | 138 | 1.0 | 7.0 | 0.00 | 0.00 | 0.00 | 66 | 1014.4 |
| 20260903050818 | 85 | 156 | 1.0 | 6.0 | 0.00 | 0.00 | 0.00 | 66 | 1013.7 |
| 20260903050023 | 85 | 106 | 2.0 | 8.0 | 0.00 | 0.00 | 0.00 | 67 | 1014.2 |
| 20260903045753 | 85 | 39 | 0.0 | 7.0 | 0.00 | 0.00 | 0.00 | 68 | 1013.5 |
| 20260903044811 | 86 | 111 | 0.0 | 5.0 | 0.00 | 0.00 | 0.00 | 68 | 1013.4 |
| 20260903044518 | 85 | 169 | 0.0 | 9.0 | 0.00 | 0.00 | 0.00 | 68 | 1014.0 |
| 20260903043749 | 86 | 72 | 1.0 | 7.0 | 0.00 | 0.00 | 0.00 | 67 | 1013.3 |
| 20260903043017 | 86 | 173 | 2.0 | 9.0 | 0.00 | 0.00 | 0.00 | 66 | 1013.9 |
| 20260903042743 | 86 | 149 | 1.0 | 10.0 | 0.00 | 0.00 | 0.00 | 66 | 1013.3 |
| 20260903041749 | 87 | 143 | 1.0 | 10.0 | 0.00 | 0.00 | 0.00 | 65 | 1013.3 |
| 20260903041516 | 87 | 121 | 4.0 | 12.0 | 0.00 | 0.00 | 0.00 | 64 | 1013.9 |
| 20260903040718 | 87 | 137 | 1.0 | 7.0 | 0.00 | 0.00 | 0.00 | 64 | 1013.2 |
| 20260903040011 | 87 | 200 | 2.0 | 8.0 | 0.00 | 0.00 | 0.00 | 64 | 1013.9 |
| 20260903035728 | 88 | 205 | 1.0 | 7.0 | 0.00 | 0.00 | 0.00 | 64 | 1013.2 |
| 20260903034737 | 88 | 132 | 0.0 | 5.0 | 0.00 | 0.00 | 0.00 | 63 | 1013.1 |
| 20260903034511 | 87 | 163 | 0.0 | 6.0 | 0.00 | 0.00 | 0.00 | 62 | 1013.8 |
| 20260903033720 | 88 | 96 | 1.0 | 6.0 | 0.00 | 0.00 | 0.00 | 61 | 1012.9 |
| 20260903033005 | 88 | 130 | 2.0 | 8.0 | 0.00 | 0.00 | 0.00 | 59 | 1013.6 |
| 20260903032736 | 88 | 122 | 0.0 | 7.0 | 0.00 | 0.00 | 0.00 | 59 | 1012.8 |
| 20260903031713 | 89 | 130 | 1.0 | 7.0 | 0.00 | 0.00 | 0.00 | 57 | 1012.7 |
| 20260903031521 | 88 | 94 | 2.0 | 9.0 | 0.00 | 0.00 | 0.00 | 57 | 1013.4 |
| 20260903030730 | 85 | 185 | 0.0 | 5.0 | 0.00 | 0.00 | 0.00 | 59 | 1012.5 |
| 20260903030022 | 81 | 137 | 0.0 | 2.0 | 0.00 | 0.00 | 0.00 | 66 | 1013.0 |
| 20260903025738 | 82 | 135 | 0.0 | 0.0 | 0.00 | 0.00 | 0.00 | 66 | 1012.3 |
| 20260903024753 | 82 | 135 | 0.0 | 0.0 | 0.00 | 0.00 | 0.00 | 65 | 1012.1 |
| 20260903024524 | 82 | 137 | 0.0 | 0.0 | 0.00 | 0.00 | 0.00 | 64 | 1012.9 |
| 20260903023810 | 82 | 135 | 0.0 | 0.0 | 0.00 | 0.00 | 0.00 | 65 | 1012.0 |
| 20260903023025 | 81 | 137 | 0.0 | 0.0 | 0.00 | 0.00 | 0.00 | 65 | 1012.7 |
| 20260903022833 | 82 | 135 | 0.0 | 0.0 | 0.00 | 0.00 | 0.00 | 65 | 1011.9 |
| 20260903021523 | 82 | 137 | 0.0 | 0.0 | 0.00 | 0.00 | 0.00 | 63 | 1012.5 |
| 20260903020741 | 83 | 135 | 0.0 | 0.0 | 0.00 | 0.00 | 0.00 | 63 | 1011.7 |
| 20260903020010 | 83 | 137 | 0.0 | 0.0 | 0.00 | 0.00 | 0.00 | 62 | 1012.3 |
| 20260903015722 | 84 | 135 | 0.0 | 0.0 | 0.00 | 0.00 | 0.00 | 62 | 1011.5 |
| 20260903014718 | 84 | 135 | 0.0 | 0.0 | 0.00 | 0.00 | 0.00 | 60 | 1011.5 |
| 20260903014508 | 84 | 137 | 0.0 | 0.0 | 0.00 | 0.00 | 0.00 | 60 | 1012.2 |
| 20260903013009 | 85 | 137 | 0.0 | 0.0 | 0.00 | 0.00 | 0.00 | 58 | 1012.0 |
| 20260903012552 | 86 | 135 | 0.0 | 0.0 | 0.00 | 0.00 | 0.00 | 56 | 1011.3 |
| 20260903011525 | 86 | 137 | 0.0 | 0.0 | 0.00 | 0.00 | 0.00 | 58 | 1012.0 |
| 20260903010433 | 87 | 135 | 0.0 | 0.0 | 0.00 | 0.00 | 0.00 | 55 | 1011.1 |
| 20260903010024 | 87 | 137 | 0.0 | 0.0 | 0.00 | 0.00 | 0.00 | 54 | 1011.9 |
| 20260903005407 | 89 | 135 | 0.0 | 0.0 | 0.00 | 0.00 | 0.00 | 52 | 1011.2 |
| 20260903004533 | 90 | 137 | 0.0 | 0.0 | 0.00 | 0.00 | 0.00 | 47 | 1012.0 |
| 20260903004344 | 91 | 135 | 0.0 | 0.0 | 0.00 | 0.00 | 0.00 | 47 | 1011.2 |
| 20260903003323 | 93 | 135 | 0.0 | 0.0 | 0.00 | 0.00 | 0.00 | 45 | 1011.2 |
| 20260903003026 | 92 | 137 | 0.0 | 1.0 | 0.00 | 0.00 | 0.00 | 43 | 1012.0 |
| 20260903001521 | 93 | 97 | 0.0 | 2.0 | 0.00 | 0.00 | 0.00 | 43 | 1011.9 |
| 20260903001231 | 94 | 93 | 0.0 | 0.0 | 0.00 | 0.00 | 0.00 | 43 | 1011.2 |
| 20260903000016 | 95 | 175 | 0.0 | 2.0 | 0.00 | 0.00 | 0.00 | 39 | 1012.0 |
| 20260902234515 | 95 | 264 | 0.0 | 3.0 | 0.00 | 0.00 | 0.00 | 37 | 1012.1 |
| 20260902233917 | 96 | 85 | 0.0 | 3.0 | 0.00 | 0.00 | 0.00 | 40 | 1011.4 |
| 20260902233009 | 96 | 128 | 0.0 | 2.0 | 0.00 | 0.00 | 0.00 | 38 | 1012.2 |
| 20260902232918 | 97 | 57 | 0.0 | 1.0 | 0.00 | 0.00 | 0.00 | 39 | 1011.5 |
| 20260902231849 | 98 | 136 | 0.0 | 2.0 | 0.00 | 0.00 | 0.00 | 39 | 1011.4 |
| 20260902231528 | 97 | 46 | 0.0 | 3.0 | 0.00 | 0.00 | 0.00 | 37 | 1012.2 |